Park Rapids, MN

3:19 AM CDT on March 29, 2017 (GMT -0500)
Park Rapids Municipal

Weather History for KPKD - January, 2014

Change the Weather History Date:

Thursday, January 23, 2014

  Actual Average Record
Temperature  
Mean Temperature -14 °F -  
Max Temperature 8 °F 19 °F 43 °F (1981)
Min Temperature -33 °F -2 °F -34 °F (1996)
Degree Days  
Heating Degree Days 79    
Moisture  
Dew Point -18 °F    
Average Humidity 77    
Maximum Humidity 90    
Minimum Humidity 66    
Precipitation  
Precipitation 0.00 in - - ()
Sea Level Pressure  
Sea Level Pressure 30.57 in    
Wind  
Wind Speed 7 mph (WSW)    
Max Wind Speed 17 mph    
Max Gust Speed 23 mph    
Visibility 10 miles    
Events      
Averages and records for this station are not official NWS values.
T = Trace of Precipitation, MM = Missing Value Source: NWS Daily Summary

Daily Weather History Graph

Daily Weather History Graph

Search for Another Location

Airport or City:

Trip Planner

Search our weather history database for the weather conditions in past years. The results will help you decide how hot, cold, wet, or windy it might be!

Date:

Astronomy

Jan. 23, 2014 Rise Set
Actual Time 7:54 AM CST 5:09 PM CST
Civil Twilight 7:21 AM CST 5:43 PM CST
Nautical Twilight 6:44 AM CST 6:20 PM CST
Astronomical Twilight 6:08 AM CST 6:56 PM CST
Moon 12:10 AM CST (1/23) 11:00 AM CST (1/23)
Length of Visible Light 10h 21m
Length of Day
9h 15m
Waning Gibbous, 55% of the Moon is Illuminated
Jan 23
Waning Gibbous
Jan 23
Last Quarter
Jan 30
New
Feb 6
First Quarter
Feb 14
Full

Hourly Weather History & Observations

Time (CST) Temp. Windchill Dew Point Humidity Pressure Visibility Wind Dir Wind Speed Gust Speed Precip Events Conditions
12:53 AM -23.1 °F -38.9 °F -27.0 °F 82% 30.67 in 10.0 mi NNW 5.8 mph - N/A   Clear
1:53 AM -27.0 °F - -33.0 °F 73% 30.70 in 10.0 mi Calm Calm - N/A   Clear
2:53 AM -29.0 °F -47.9 °F -33.0 °F 81% 30.72 in 10.0 mi WNW 6.9 mph - N/A   Clear
3:53 AM -29.9 °F -49.0 °F - N/A% 30.74 in 10.0 mi NW 6.9 mph - N/A   Clear
4:53 AM -29.0 °F -49.5 °F -32.1 °F 85% 30.75 in 10.0 mi NW 8.1 mph - N/A   Partly Cloudy
5:12 AM -29.0 °F -47.9 °F -33.0 °F 81% 30.58 in 10.0 mi NW 6.9 mph - N/A   Mostly Cloudy
5:42 AM -27.0 °F -45.5 °F -31.0 °F 81% 30.58 in 10.0 mi WNW 6.9 mph - N/A   Partly Cloudy
5:53 AM -33.0 °F -50.7 °F - N/A% 30.77 in 10.0 mi West 5.8 mph - N/A   Partly Cloudy
6:53 AM -32.1 °F -47.3 °F - N/A% 30.79 in 10.0 mi WNW 4.6 mph - N/A   Clear
7:53 AM -29.9 °F -42.0 °F - N/A% 30.79 in 4.0 mi WNW 3.5 mph - N/A   Haze
8:53 AM -27.0 °F -41.5 °F -29.0 °F 90% 30.78 in 10.0 mi WNW 4.6 mph - N/A   Clear
9:53 AM -23.1 °F -36.8 °F -25.1 °F 90% 30.79 in 10.0 mi WSW 4.6 mph - 0.00 in   Clear
10:53 AM -16.1 °F -30.6 °F -20.0 °F 82% 30.77 in 10.0 mi West 5.8 mph - 0.00 in   Clear
11:53 AM -9.9 °F -26.3 °F -16.1 °F 74% 30.73 in 10.0 mi West 8.1 mph - N/A   Clear
12:53 PM -7.1 °F -21.4 °F -13.0 °F 75% 30.69 in 10.0 mi West 6.9 mph - N/A   Clear
1:53 PM -6.0 °F -20.1 °F -11.9 °F 75% 30.66 in 10.0 mi WSW 6.9 mph - N/A   Clear
2:53 PM -5.1 °F -24.3 °F -11.9 °F 72% 30.63 in 10.0 mi SW 12.7 mph - N/A   Clear
3:53 PM -4.0 °F -22.1 °F -11.9 °F 69% 30.59 in 10.0 mi SW 11.5 mph - N/A   Clear
4:53 PM -7.1 °F -23.9 °F -14.1 °F 72% 30.54 in 10.0 mi SSW 9.2 mph - N/A   Clear
5:53 PM -8.0 °F -26.1 °F -15.0 °F 71% 30.48 in 10.0 mi South 10.4 mph - N/A   Clear
6:53 PM -9.0 °F -30.2 °F -15.0 °F 75% 30.40 in 10.0 mi South 13.8 mph - N/A   Clear
7:53 PM -7.1 °F -25.0 °F -13.0 °F 75% 30.34 in 10.0 mi SSW 10.4 mph - N/A   Mostly Cloudy
8:53 PM -4.0 °F -22.1 °F -9.9 °F 76% 30.24 in 10.0 mi SSW 11.5 mph - N/A   Scattered Clouds
9:53 PM 1.0 °F -17.3 °F -6.0 °F 72% 30.15 in 10.0 mi SSW 13.8 mph - N/A   Mostly Cloudy
10:53 PM 5.0 °F -14.2 °F -4.0 °F 66% 30.05 in 10.0 mi SW 17.3 mph - N/A   Clear
11:53 PM 8.1 °F -9.6 °F -0.9 °F 67% 29.95 in 10.0 mi SW 16.1 mph 23.0 mph N/A   Mostly Cloudy